Weather History for Howell, MI

Change the Weather History Date:

Tuesday, May 21, 2013

  Actual Average Record
Temperature  
Mean Temperature 75 °F -  
Max Temperature 84 °F 66 °F 84 °F (2013)
Min Temperature 66 °F 46 °F 35 °F (1997)
Cooling Degree Days 10    
Growing Degree Days 25 (Base 50)    
Moisture  
Dew Point 61 °F    
Average Humidity 62    
Maximum Humidity 92    
Minimum Humidity 37    
Precipitation  
Precipitation 0.00 in - - ()
Sea Level Pressure  
Sea Level Pressure 29.78 in    
Wind  
Wind Speed 7 mph (SSW)    
Max Wind Speed 15 mph    
Max Gust Speed 34 mph    
Visibility 10 miles    
Events Rain    
Averages and records for this station are not official NWS values.
T = Trace of Precipitation, MM = Missing Value Source: NWS Daily Summary

Daily Weather History Graph

Daily Weather History Graph

Search for Another Location

Airport:

Trip Planner

Search our weather history database for the weather conditions in past years. The results will help you decide how hot, cold, wet, or windy it might be!

Date:

Astronomy

May. 21, 2013 Rise Set
Actual Time 6:07 AM EDT 8:57 PM EDT
Civil Twilight 5:34 AM EDT 9:30 PM EDT
Nautical Twilight 4:53 AM EDT 10:12 PM EDT
Astronomical Twilight 4:04 AM EDT 11:01 PM EDT
Moon 5:05 PM EDT (5/21) 3:40 AM EDT (5/21)
Length of Visible Light 15h 56m
Length of Day
14h 49m
Waxing Gibbous, 84% of the Moon is Illuminated
May 21
Waxing Gibbous
May 25
Full
May 31
Last Quarter
Jun 8
New
Jun 16
First Quarter

Hourly Weather History & Observations

Time (EDT) Temp. Heat Index Dew Point Humidity Pressure Visibility Wind Dir Wind Speed Gust Speed Precip Events Conditions
12:15 AM 73.9 °F - 64.4 °F 72% 29.83 in 10.0 mi South 4.6 mph - N/A   Clear
12:34 AM 74.3 °F - 64.2 °F 71% 29.83 in 10.0 mi SSW 3.5 mph - N/A   Clear
12:55 AM 72.7 °F - 64.4 °F 75% 29.83 in 10.0 mi South 4.6 mph - N/A   Clear
1:14 AM 73.4 °F - 64.4 °F 73% 29.83 in 10.0 mi South 4.6 mph - N/A   Clear
1:35 AM 72.7 °F - 64.6 °F 76% 29.83 in 10.0 mi South 4.6 mph - N/A   Clear
1:54 AM 72.7 °F - 64.6 °F 76% 29.82 in 10.0 mi South 5.8 mph - N/A   Clear
2:15 AM 72.5 °F - 64.8 °F 77% 29.82 in 10.0 mi South 5.8 mph - N/A   Clear
2:34 AM 72.1 °F - 64.6 °F 77% 29.82 in 10.0 mi South 5.8 mph - N/A   Clear
2:55 AM 72.5 °F - 64.8 °F 77% 29.82 in 10.0 mi South 5.8 mph - N/A   Clear
3:15 AM 72.0 °F - 64.8 °F 78% 29.81 in 10.0 mi South 6.9 mph - N/A   Clear
3:34 AM 71.6 °F - 64.6 °F 78% 29.80 in 10.0 mi SSE 5.8 mph - N/A   Clear
3:55 AM 70.3 °F - 64.6 °F 82% 29.79 in 7.0 mi South 5.8 mph - N/A   Clear
4:15 AM 71.6 °F - 64.8 °F 79% 29.80 in 10.0 mi South 9.2 mph - N/A   Scattered Clouds
4:34 AM 71.4 °F - 64.8 °F 79% 29.79 in 10.0 mi South 6.9 mph - N/A   Scattered Clouds
4:55 AM 71.6 °F - 65.1 °F 80% 29.78 in 10.0 mi SSE 6.9 mph - N/A   Clear
5:15 AM 71.6 °F - 65.5 °F 81% 29.80 in 7.0 mi South 9.2 mph - N/A Rain Light Rain
5:34 AM 71.2 °F - 65.3 °F 81% 29.80 in 10.0 mi South 8.1 mph - N/A   Scattered Clouds
5:55 AM 71.6 °F - 65.7 °F 81% 29.81 in 10.0 mi South 6.9 mph - N/A   Mostly Cloudy
6:15 AM 70.7 °F - 65.3 °F 83% 29.82 in 5.0 mi WNW 10.4 mph 34.5 mph N/A Rain Light Rain
6:35 AM 68.5 °F - 63.0 °F 82% 29.80 in 10.0 mi WNW 4.6 mph - N/A   Scattered Clouds
6:55 AM 66.2 °F - 63.1 °F 90% 29.80 in 10.0 mi Calm Calm - N/A   Clear
7:14 AM 66.2 °F - 63.9 °F 92% 29.80 in 10.0 mi Calm Calm - N/A   Mostly Cloudy
7:35 AM 68.4 °F - 64.6 °F 88% 29.78 in 10.0 mi SE 4.6 mph - N/A   Scattered Clouds
7:55 AM 68.4 °F - 65.3 °F 90% 29.76 in 10.0 mi ESE 3.5 mph - N/A   Clear
8:14 AM 69.3 °F - 64.4 °F 84% 29.77 in 10.0 mi SSE 4.6 mph - N/A   Clear
8:35 AM 70.5 °F - 64.4 °F 81% 29.78 in 10.0 mi South 4.6 mph - N/A   Clear
8:55 AM 73.2 °F - 64.6 °F 74% 29.79 in 10.0 mi South 9.2 mph - N/A   Clear
9:14 AM 74.3 °F - 64.2 °F 71% 29.80 in 10.0 mi South 8.1 mph - N/A   Clear
9:35 AM 75.2 °F - 64.2 °F 69% 29.80 in 10.0 mi South 8.1 mph - N/A   Clear
9:55 AM 76.3 °F - 63.1 °F 64% 29.80 in 10.0 mi SW 9.2 mph 18.4 mph N/A   Clear
10:14 AM 77.4 °F - 60.6 °F 56% 29.81 in 10.0 mi SSW 15.0 mph 20.7 mph N/A   Scattered Clouds
10:35 AM 77.5 °F - 58.8 °F 52% 29.80 in 10.0 mi SW 9.2 mph 18.4 mph N/A   Mostly Cloudy
10:55 AM 79.2 °F - 57.2 °F 47% 29.81 in 10.0 mi WSW 15.0 mph 19.6 mph N/A   Scattered Clouds
11:14 AM 79.2 °F - 56.8 °F 46% 29.80 in 10.0 mi SW 10.4 mph 18.4 mph N/A   Scattered Clouds
11:35 AM 77.5 °F - 57.6 °F 50% 29.80 in 10.0 mi SW 11.5 mph - N/A   Overcast
11:54 AM 77.7 °F - 59.0 °F 52% 29.80 in 10.0 mi SW 9.2 mph - N/A   Mostly Cloudy
12:15 PM 78.3 °F - 58.8 °F 51% 29.80 in 10.0 mi SW 10.4 mph - N/A   Mostly Cloudy
12:34 PM 77.9 °F - 58.5 °F 51% 29.79 in 10.0 mi SSW 11.5 mph - N/A   Mostly Cloudy
12:55 PM 77.5 °F - 58.3 °F 51% 29.78 in 10.0 mi SW 9.2 mph 17.3 mph N/A   Scattered Clouds
1:15 PM 79.9 °F - 59.2 °F 49% 29.78 in 10.0 mi SW 11.5 mph - N/A   Clear
1:34 PM 80.6 °F 80.8 °F 57.2 °F 45% 29.78 in 10.0 mi SSW 11.5 mph 21.9 mph N/A   Scattered Clouds
1:55 PM 80.1 °F 80.4 °F 57.2 °F 45% 29.78 in 10.0 mi SW 15.0 mph 24.2 mph N/A   Mostly Cloudy
2:15 PM 80.4 °F 80.9 °F 58.5 °F 47% 29.77 in 10.0 mi SW 12.7 mph - N/A   Scattered Clouds
2:34 PM 81.3 °F 81.4 °F 58.1 °F 45% 29.77 in 10.0 mi SW 12.7 mph 18.4 mph N/A   Mostly Cloudy
2:55 PM 81.7 °F 81.5 °F 57.0 °F 43% 29.76 in 10.0 mi SSW 6.9 mph 16.1 mph N/A   Scattered Clouds
3:15 PM 83.5 °F 82.6 °F 55.8 °F 39% 29.75 in 10.0 mi SSW 15.0 mph 20.7 mph N/A   Scattered Clouds
3:35 PM 84.2 °F 83.0 °F 55.6 °F 37% 29.76 in 10.0 mi SSW 13.8 mph 19.6 mph N/A   Clear
3:55 PM 82.6 °F 82.0 °F 56.1 °F 40% 29.76 in 10.0 mi SW 15.0 mph 20.7 mph N/A   Scattered Clouds
4:14 PM 82.2 °F 82.0 °F 57.4 °F 43% 29.76 in 10.0 mi SW 11.5 mph - N/A   Mostly Cloudy
4:35 PM 83.7 °F 83.0 °F 56.7 °F 40% 29.75 in 10.0 mi SW 13.8 mph 19.6 mph N/A   Scattered Clouds
4:55 PM 82.4 °F 82.0 °F 57.0 °F 42% 29.75 in 10.0 mi SW 12.7 mph 16.1 mph N/A   Scattered Clouds
5:14 PM 83.1 °F 82.9 °F 58.5 °F 43% 29.75 in 10.0 mi SW 10.4 mph 16.1 mph N/A   Mostly Cloudy
5:35 PM 82.4 °F 82.3 °F 58.6 °F 44% 29.75 in 10.0 mi SW 11.5 mph 17.3 mph N/A   Scattered Clouds
5:55 PM 83.1 °F 83.0 °F 58.8 °F 44% 29.75 in 10.0 mi SW 15.0 mph 20.7 mph N/A   Scattered Clouds
6:14 PM 81.7 °F 81.8 °F 58.3 °F 45% 29.75 in 10.0 mi WSW 11.5 mph - N/A   Scattered Clouds
6:35 PM 82.6 °F 82.3 °F 58.3 °F 43% 29.74 in 10.0 mi WSW 9.2 mph - N/A   Clear
6:55 PM 82.4 °F 82.3 °F 58.5 °F 44% 29.74 in 10.0 mi WSW 11.5 mph - N/A   Clear
7:14 PM 82.0 °F 82.1 °F 58.5 °F 45% 29.74 in 10.0 mi WSW 9.2 mph - N/A   Clear
7:35 PM 80.4 °F 81.0 °F 59.0 °F 48% 29.75 in 10.0 mi WSW 5.8 mph - N/A   Clear
7:55 PM 80.1 °F 80.7 °F 59.0 °F 48% 29.75 in 10.0 mi SW 5.8 mph - N/A   Clear
8:14 PM 79.5 °F - 59.2 °F 50% 29.74 in 10.0 mi WSW 4.6 mph - N/A   Clear
8:35 PM 78.1 °F - 59.4 °F 52% 29.74 in 10.0 mi SW 3.5 mph - N/A   Clear
8:55 PM 77.5 °F - 59.0 °F 53% 29.74 in 10.0 mi Calm Calm - N/A   Clear
9:15 PM 75.6 °F - 59.7 °F 58% 29.73 in 10.0 mi Calm Calm - N/A   Clear
9:35 PM 74.7 °F - 58.8 °F 58% 29.74 in 10.0 mi Calm Calm - N/A   Clear
9:54 PM 75.2 °F - 59.2 °F 57% 29.75 in 10.0 mi Calm Calm - N/A   Clear
10:15 PM 74.3 °F - 59.2 °F 59% 29.75 in 10.0 mi Calm Calm - N/A   Clear
10:35 PM 72.7 °F - 59.5 °F 63% 29.76 in 10.0 mi Calm Calm - N/A   Clear
10:54 PM 72.1 °F - 59.9 °F 65% 29.76 in 10.0 mi South 3.5 mph - N/A   Clear
11:15 PM 72.5 °F - 59.5 °F 64% 29.76 in 10.0 mi Calm Calm - N/A   Clear
11:35 PM 70.9 °F - 59.2 °F 66% 29.76 in 10.0 mi SW 3.5 mph - N/A   Scattered Clouds
11:54 PM 71.2 °F - 59.7 °F 67% 29.76 in 10.0 mi Calm Calm - N/A   Scattered Clouds